Location: Shandelee
(41.8790°N, 74.8713°W)
Time: 12:26:39
(UTC+00:00)

ATLAS 2AS CENTAUR R/B - Pass Details

Date: 29 October 2020
Orbit: 939 x 1273 km, 63.7° (Epoch: 23 November)

Event Time Altitude Azimuth Distance (km) Brightness Sun altitude
Rises 23:37:13 0° 326° (NW) 4,156 6.2 -19.2°
Reaches altitude 10° 23:40:24 10° 335° (NNW) 3,146 5.4 -19.8°
Maximum altitude 23:47:11 35° 40° (NE) 1,752 3.5 -21.1°
Enters shadow 23:48:39 32° 63° (ENE) 1,819 3.4 -21.3°
